Regional Weather Roundup
Issued by NWS Cleveland, OH

Home | Current Version | Previous Version | Graphics & Text | Print | Product List | Glossary On
Versions: 1 2 3 4 5 6 7 8 9 10 11 12 13 14 15 16 17 18 19 20 21 22 23 24 25 26 27 28 29 30 31 32 33 34 35 36 37 38 39 40 41 42 43 44 45 46 47 48 49 50
000
ASUS41 KCLE 041310
RWRCLE
OHIO REGIONAL WEATHER ROUNDUP
NATIONAL WEATHER SERVICE WILMINGTON, OH
800 AM EST SUN DEC 04 2016

NOTE: "FAIR" INDICATES FEW OR NO CLOUDS BELOW 12,000 FEET WITH NO
SIGNIFICANT WEATHER AND/OR OBSTRUCTIONS TO VISIBILITY.

OHZ001>008-015>018-024>027-034-035-043-044-041400-
   NORTHWEST OHIO

CITY           SKY/WX    TMP DP  RH WIND       PRES   REMARKS
DEFIANCE       CLOUDY    35  25  66 E5        30.21F
FINDLAY        CLOUDY    34  26  72 SE7       30.21S WCI  28
TOLEDO EXPRESS CLOUDY    32  29  88 CALM      30.22S
TOLEDO EXEC    CLOUDY    34  30  85 CALM      30.24S
LIMA           CLOUDY    33  28  81 SE7       30.19F WCI  27
$$

OHZ009>014-019>023-028>033-038-089-041400-
   NORTHEAST OHIO

CITY           SKY/WX    TMP DP  RH WIND       PRES   REMARKS
CLE-HOPKINS    CLOUDY    35  25  66 CALM      30.27S
CLE-LAKEFRONT  FAIR      36  25  64 SW5       30.25S
CUY CO. ARPT   PTCLDY    34  28  80 S5        30.25S WCI  30
LORAIN-ELYRIA  FAIR      32  26  78 CALM      30.24F
ASHTABULA      CLOUDY    33  29  85 S6        30.25S WCI  28
AKRON-CANTON   CLOUDY    34  26  72 CALM      30.23S
WOOSTER        FAIR      31  28  89 CALM      30.23F
MANSFIELD      FAIR      32  25  75 SE5       30.22S WCI  27
YOUNGSTOWN     CLOUDY    31  26  82 E3        30.23F
$$

OHZ042-051>053-060>062-070>072-077>081-041400-
  SOUTHWEST OHIO

CITY           SKY/WX    TMP DP  RH WIND       PRES   REMARKS
CINC-COVINGTON CLOUDY    37  30  75 SE9       30.19F
CINC-LUNKEN    CLOUDY    37  32  82 NE3       30.22F
HAMILTON       CLOUDY    37  30  75 E6        30.22S
DAYTON         CLOUDY    34  27  75 SE9       30.20F WCI  27
WRIGHT-PAT AFB CLOUDY    35  29  80 SE6       30.20F
DAYTON GENERAL CLOUDY    35  27  72 SE7       30.19F WCI  29
WILMINGTON     CLOUDY    33  30  88 E5        30.20S WCI  29
$$

OHZ036-037-039>041-045>050-054>059-063>069-073>076-082>088-041400-
  CENTRAL AND SOUTHEAST OHIO

CITY           SKY/WX    TMP DP  RH WIND       PRES   REMARKS
COLUMBUS       CLOUDY    35  30  82 E8        30.23F WCI  29
OSU AIRPORT    FAIR      34  30  85 E6        30.22F WCI  29
BOLTON FIELD   PTCLDY    34  30  86 CALM      30.23S
RICKENBACK AFB CLOUDY    33  31  95 E3        30.23S
NEWARK         FAIR      33  28  81 CALM      30.23F
MARION         FAIR      33  26  75 SE7       30.22F WCI  27
LANCASTER      FAIR      34  31  88 E5        30.24F WCI  30
ZANESVILLE     FAIR      33  27  78 CALM      30.24F
NEW PHILLY     FAIR      32  29  88 CALM      30.25F
$$



USA.gov is the U.S. government's official web portal to all federal, state and local government web resources and services.